Wind_Speed
3 3 4 4 3 4 4 5 5 5 6 7 7 8 9 9 9 9 9 10 10 10 11 11 10 11 11 11 11 10 9 9 9 9 9 8 7 7 6 5 5 5 5
3 4 4 4 4 4 5 5 5 6 6 7 7 7 8 8 9 9 9 10 10 10 10 10 10 10 10 10 10 10 9 9 9 8 8 7 7 7 6 6 5 5 4
4 4 4 4 4 4 4 5 5 5 6 7 7 7 8 9 9 8 9 9 10 10 10 10 10 9 9 9 9 9 9 9 9 8 7 7 7 6 6 5 5 5 5
5 5 5 5 5 4 4 5 5 5 6 6 7 8 8 8 8 8 9 9 9 9 10 10 9 9 9 9 8 8 8 8 8 8 7 7 6 6 5 5 5 5 4
6 6 5 5 4 4 4 5 5 5 5 5 7 8 8 9 8 8 9 9 9 9 9 9 8 8 8 8 7 7 6 6 7 7 7 6 5 5 5 4 4 5 4
7 6 5 5 5 5 5 5 4 4 5 6 8 9 9 9 8 8 8 9 9 8 8 8 7 7 7 7 6 6 6 6 6 6 6 6 5 4 4 3 3 3 3
7 7 6 6 6 6 6 5 5 5 6 8 9 10 9 9 9 8 9 8 8 8 7 7 7 7 7 7 6 6 6 6 6 6 6 5 4 3 3 3 2 3 2
8 7 7 7 7 7 6 6 5 6 7 8 9 9 9 9 9 8 8 8 8 8 8 7 7 7 7 6 6 6 6 6 5 5 5 4 3 3 2 3 2 2 2
9 9 8 8 7 7 6 6 7 7 7 7 8 8 8 9 9 8 8 8 9 8 8 7 7 7 7 6 5 5 5 4 5 5 5 4 3 2 2 2 2 2 2
11 10 9 8 7 7 6 7 7 7 6 6 7 8 8 8 8 7 8 8 8 8 7 7 6 6 6 5 4 5 4 4 4 3 3 3 2 2 2 2 1 1 1
11 10 10 9 8 7 7 7 7 6 6 6 7 7 7 8 8 7 8 8 8 8 8 7 6 5 5 4 3 3 3 3 2 2 2 2 2 2 2 1 1 1 1
11 10 9 9 9 8 7 7 7 6 6 6 7 7 7 7 7 6 6 7 8 7 6 7 6 5 4 4 3 2 2 2 1 1 1 1 2 2 1 1 1 1 2
11 10 9 8 8 7 7 7 6 6 6 6 6 7 6 6 7 6 6 7 7 6 7 5 5 5 4 4 3 2 1 1 1 1 1 1 1 2 1 1 1 3 3
11 10 9 8 8 7 7 6 5 5 5 6 6 6 6 6 5 6 6 5 6 6 6 5 4 4 3 3 2 1 1 1 1 1 1 2 2 2 2 2 3 4 4
11 10 9 9 8 7 7 6 6 5 6 6 5 5 5 5 5 6 6 6 6 6 6 5 4 4 3 2 1 1 0 0 1 2 2 2 2 3 3 4 5 5 5
10 10 10 9 9 9 7 7 7 7 6 6 6 5 4 5 6 5 6 6 6 6 5 5 4 4 3 2 1 1 1 1 2 2 3 3 3 4 5 5 5 5 6
10 9 10 9 9 9 8 8 8 8 7 7 8 6 5 5 5 6 6 6 6 5 5 4 4 4 3 2 1 1 1 2 3 3 4 4 4 5 5 5 6 6 7
10 9 9 9 9 9 8 8 7 8 7 7 7 7 7 6 5 5 5 5 5 4 4 3 3 3 2 0 1 2 2 3 3 4 5 5 5 6 6 6 6 7 7
10 9 9 8 8 8 7 7 7 7 7 6 7 7 6 5 4 4 4 4 4 3 3 2 2 2 1 1 1 2 2 3 4 4 5 5 5 6 6 7 7 7 8
10 9 9 8 7 7 7 7 7 8 7 6 6 6 5 5 4 4 3 2 2 2 2 2 1 1 1 2 2 3 3 3 4 4 5 5 5 5 6 7 7 7 7
11 10 9 8 7 7 7 6 6 6 6 6 6 5 5 4 4 2 2 2 2 3 2 1 1 1 2 2 3 3 4 4 4 4 5 6 7 7 7 7 7 8 8
11 10 9 8 7 6 6 6 6 6 6 6 6 5 5 5 4 3 2 2 3 3 2 2 2 3 3 3 4 4 5 5 5 5 6 7 8 7 8 8 8 8 9
11 10 10 9 7 6 6 6 6 6 6 5 5 5 5 4 4 3 3 2 2 3 3 4 4 4 4 4 5 5 6 5 6 6 6 7 8 8 8 9 9 9 9
11 10 10 9 8 7 6 6 6 5 5 5 5 4 4 4 4 3 3 2 3 3 4 5 5 6 6 6 6 6 6 6 6 7 7 8 9 9 10 10 10 10 9
10 10 10 9 9 7 6 6 5 5 5 5 5 4 4 4 4 3 3 4 4 4 5 5 6 6 7 7 7 7 7 7 8 8 9 9 10 10 11 11 10 10 11
9 9 9 9 8 8 7 6 6 6 5 5 5 5 4 4 4 4 4 5 5 6 6 7 7 7 7 7 8 8 8 9 9 10 10 11 11 12 12 11 12 12 11
Wind_Direction
142 142 146 132 120 132 143 147 151 153 148 148 148 150 152 148 145 141 131 132 129 125 123 123 117 113 109 106 106 107 107 103 117 114 115 122 116 110 101 97 99 90 80
108 120 133 128 119 133 139 150 154 155 151 152 155 147 149 151 147 139 135 133 127 126 124 121 117 113 109 109 107 106 104 106 113 108 107 109 109 105 101 98 94 87 79
102 100 101 112 119 129 138 140 143 148 154 153 154 155 153 148 145 139 135 132 129 127 124 119 119 113 113 114 114 113 110 109 108 110 106 105 103 102 101 96 89 85 83
94 95 94 104 112 122 127 126 132 148 155 156 158 158 156 153 147 140 134 134 132 129 125 119 120 115 112 112 114 113 111 109 110 110 106 104 100 98 96 90 87 84 79
88 90 93 101 112 117 114 119 125 141 152 163 163 160 155 152 148 143 139 138 135 128 126 123 121 119 115 112 111 111 111 109 112 108 103 103 98 91 90 85 82 77 68
86 92 95 96 100 105 100 108 120 126 130 143 154 153 149 146 146 146 142 141 138 134 133 132 125 124 121 118 115 112 115 120 117 111 106 102 96 92 82 77 75 74 70
86 90 92 91 91 94 94 103 112 120 126 135 142 142 142 143 142 143 142 142 141 139 137 135 131 130 126 123 118 111 111 120 123 116 110 104 102 96 80 79 82 76 59
83 87 89 92 93 93 97 103 105 115 126 135 140 141 138 139 142 143 146 147 148 145 143 138 136 132 129 125 119 116 115 118 119 120 111 99 95 89 77 77 77 64 66
79 84 89 92 94 96 102 106 112 115 120 127 135 140 137 142 143 144 149 149 151 152 152 148 141 137 132 126 121 121 123 120 121 114 107 97 83 70 61 67 61 63 72
78 83 85 87 93 98 100 103 112 117 116 126 135 137 137 139 141 139 147 150 153 150 149 146 140 135 134 128 121 114 115 117 119 115 107 87 69 60 59 49 38 26 13
77 78 79 78 92 108 103 102 106 115 119 120 129 131 134 139 142 140 147 150 152 153 150 146 141 140 142 138 133 116 110 112 117 111 109 79 46 48 43 17 11 22 343
75 75 74 76 81 89 95 98 100 108 117 121 126 131 133 141 147 146 149 149 150 149 148 149 146 140 141 138 129 123 118 111 90 93 78 35 13 19 8 12 19 358 331
71 71 68 72 73 78 87 94 92 95 110 124 131 136 140 144 145 143 147 150 152 148 149 148 153 151 146 144 146 142 112 72 52 41 30 355 1 10 13 337 329 332 329
67 66 64 62 67 72 83 92 95 91 105 120 127 140 146 148 141 142 142 147 155 153 154 154 148 152 151 150 164 147 116 105 17 348 349 339 335 332 331 316 302 307 310
66 65 62 62 62 62 70 80 87 93 93 103 115 129 138 138 140 144 146 155 159 159 159 152 150 159 159 156 182 178 166 301 340 356 332 326 321 312 302 295 291 289 300
61 59 59 60 60 57 65 71 79 84 83 90 102 113 122 127 126 136 138 147 156 160 150 138 140 139 146 147 174 202 229 311 335 334 332 316 307 303 298 292 292 300 306
55 56 57 55 54 56 57 65 73 72 74 82 88 97 110 122 123 124 128 133 143 149 146 139 138 139 142 151 196 289 298 319 324 326 322 317 311 310 312 295 294 302 304
50 52 51 50 50 52 54 62 65 58 75 82 81 88 98 107 119 120 117 119 127 143 144 134 128 130 123 117 280 303 304 304 316 325 323 316 311 308 305 302 298 299 301
43 45 43 43 44 47 52 55 57 61 74 77 76 81 85 91 105 111 112 114 119 130 135 125 128 117 65 15 325 309 303 304 316 325 330 326 318 310 307 305 299 301 302
38 38 40 41 42 45 49 52 53 61 69 72 66 71 77 82 94 100 97 107 110 108 114 103 93 61 355 348 324 317 310 307 313 320 324 323 327 326 324 319 314 313 314
37 36 37 39 40 43 48 51 51 55 63 67 68 69 69 71 79 85 79 81 82 76 71 41 360 338 323 322 318 317 312 309 310 316 321 322 319 320 323 320 318 315 312
34 34 35 36 37 41 45 46 46 48 55 58 61 61 57 60 58 57 67 65 57 41 23 5 352 337 327 320 315 311 305 306 311 312 316 319 318 321 321 320 318 316 314
31 31 31 30 32 33 35 37 40 46 51 50 51 50 44 47 48 48 48 43 22 7 355 357 351 346 338 333 324 316 311 311 312 315 316 318 320 323 322 320 319 316 313
28 29 27 25 25 29 31 34 38 40 39 35 31 27 28 34 33 30 28 16 1 351 342 336 340 341 334 331 327 320 318 319 317 321 322 317 319 321 319 317 317 316 315
20 22 23 26 27 25 25 28 31 31 29 22 15 12 14 14 9 9 7 2 358 354 345 339 337 337 335 335 335 335 330 322 321 318 316 313 313 314 315 314 313 313 311
13 15 17 22 26 26 26 26 24 24 23 18 12 7 6 3 4 357 350 351 348 343 339 335 332 332 332 333 335 334 330 326 326 322 315 310 311 313 314 314 313 312 310
Height
5855 5855 5855 5855 5856 5856 5857 5858 5859 5859 5860 5861 5862 5863 5864 5865 5866 5867 5868 5868 5870 5871 5872 5873 5874 5875 5876 5877 5878 5878 5879 5880 5881 5881 5882 5883 5884 5884 5885 5886 5887 5887 5888
5855 5855 5856 5856 5857 5857 5858 5859 5859 5860 5861 5862 5863 5864 5865 5866 5867 5869 5869 5870 5871 5872 5874 5875 5876 5877 5878 5879 5879 5880 5881 5882 5882 5883 5883 5884 5885 5885 5886 5887 5888 5888 5888
5856 5856 5857 5857 5857 5858 5859 5859 5860 5861 5862 5862 5863 5864 5866 5867 5869 5870 5871 5872 5873 5874 5875 5877 5878 5878 5879 5880 5881 5882 5882 5883 5883 5884 5885 5885 5886 5887 5887 5888 5888 5889 5889
5857 5858 5858 5858 5859 5859 5860 5860 5861 5862 5862 5863 5864 5865 5866 5868 5869 5871 5872 5873 5874 5875 5877 5878 5879 5880 5881 5882 5882 5883 5883 5884 5884 5885 5886 5887 5887 5888 5888 5889 5889 5890 5890
5859 5859 5859 5860 5860 5860 5861 5861 5862 5862 5863 5863 5864 5865 5867 5869 5870 5871 5873 5874 5876 5877 5878 5880 5880 5881 5882 5883 5883 5884 5884 5885 5885 5886 5887 5888 5888 5889 5889 5890 5890 5890 5891
5860 5860 5861 5861 5861 5861 5862 5862 5862 5863 5863 5863 5864 5866 5868 5870 5871 5872 5874 5875 5877 5878 5880 5881 5881 5882 5883 5884 5884 5885 5885 5885 5886 5887 5888 5888 5889 5890 5890 5891 5891 5891 5892
5862 5862 5862 5863 5863 5863 5863 5863 5863 5863 5863 5864 5865 5867 5869 5871 5872 5874 5875 5876 5878 5880 5881 5882 5883 5884 5885 5885 5885 5885 5885 5885 5887 5888 5889 5889 5890 5891 5891 5891 5891 5892 5892
5864 5864 5864 5864 5864 5865 5865 5865 5865 5865 5865 5866 5867 5869 5871 5872 5873 5875 5876 5877 5879 5881 5882 5883 5884 5885 5885 5886 5886 5887 5887 5887 5888 5889 5890 5890 5891 5891 5891 5891 5892 5892 5892
5866 5866 5866 5866 5866 5866 5866 5867 5867 5867 5868 5868 5869 5871 5872 5873 5875 5876 5877 5878 5880 5881 5883 5884 5885 5886 5887 5887 5888 5888 5888 5888 5889 5890 5890 5891 5891 5891 5892 5892 5892 5892 5893
5868 5869 5868 5868 5868 5868 5868 5869 5869 5869 5870 5871 5871 5873 5874 5875 5876 5877 5878 5879 5880 5882 5884 5885 5886 5887 5888 5888 5889 5889 5889 5890 5890 5890 5890 5891 5891 5892 5892 5892 5893 5893 5893
5871 5871 5871 5871 5870 5870 5870 5870 5871 5871 5872 5872 5873 5874 5875 5876 5878 5878 5880 5881 5882 5883 5885 5886 5887 5888 5889 5889 5890 5890 5891 5891 5891 5891 5891 5891 5892 5892 5892 5892 5893 5893 5893
5874 5874 5873 5873 5873 5872 5872 5873 5873 5873 5874 5874 5875 5876 5877 5878 5879 5880 5881 5882 5883 5884 5886 5887 5888 5889 5889 5890 5891 5891 5891 5891 5892 5892 5892 5892 5892 5892 5892 5893 5893 5893 5893
5877 5877 5876 5876 5875 5875 5875 5875 5875 5875 5875 5876 5877 5878 5879 5879 5880 5881 5882 5883 5885 5885 5886 5887 5888 5889 5890 5890 5891 5891 5891 5892 5892 5892 5893 5893 5892 5892 5892 5893 5893 5893 5893
5879 5879 5878 5878 5878 5877 5877 5877 5877 5877 5877 5878 5878 5879 5880 5881 5882 5882 5884 5885 5885 5886 5887 5888 5888 5890 5890 5891 5891 5891 5892 5892 5893 5893 5893 5893 5892 5892 5893 5893 5893 5893 5893
5882 5881 5881 5881 5880 5880 5879 5879 5879 5879 5879 5879 5880 5881 5881 5882 5883 5884 5885 5886 5886 5887 5888 5888 5889 5890 5890 5891 5892 5892 5892 5892 5892 5893 5893 5892 5892 5892 5892 5893 5893 5893 5892
5885 5884 5883 5883 5883 5882 5882 5881 5881 5881 5881 5881 5881 5882 5882 5883 5884 5885 5886 5886 5887 5888 5888 5889 5890 5890 5891 5892 5892 5892 5892 5892 5892 5892 5892 5892 5892 5892 5892 5892 5892 5892 5891
5887 5886 5886 5885 5885 5884 5884 5884 5883 5883 5883 5883 5883 5883 5883 5884 5885 5886 5886 5887 5887 5888 5889 5889 5890 5891 5892 5892 5892 5892 5892 5892 5892 5892 5892 5892 5892 5892 5891 5891 5891 5891 5890
5889 5889 5888 5888 5887 5886 5886 5886 5886 5885 5885 5885 5885 5885 5885 5886 5886 5887 5887 5888 5888 5889 5889 5890 5890 5891 5892 5892 5892 5892 5892 5892 5892 5892 5891 5891 5891 5891 5890 5890 5890 5889 5889
5892 5891 5890 5890 5889 5889 5888 5888 5887 5887 5887 5887 5887 5887 5887 5888 5888 5889 5889 5889 5889 5890 5890 5891 5891 5891 5892 5892 5892 5892 5892 5892 5891 5891 5891 5890 5890 5889 5889 5888 5888 5888 5888
5894 5893 5892 5892 5891 5891 5890 5890 5889 5889 5889 5889 5889 5889 5889 5889 5889 5890 5890 5890 5891 5891 5891 5891 5891 5891 5892 5892 5892 5891 5891 5891 5891 5890 5890 5890 5889 5888 5888 5887 5887 5886 5886
5896 5895 5894 5893 5893 5892 5892 5891 5891 5891 5891 5891 5891 5890 5891 5891 5891 5891 5891 5891 5892 5892 5892 5892 5892 5892 5892 5892 5891 5891 5891 5890 5890 5890 5889 5889 5888 5887 5886 5886 5885 5885 5884
5898 5897 5896 5895 5894 5894 5893 5893 5893 5893 5892 5892 5892 5892 5892 5892 5892 5892 5892 5892 5892 5893 5892 5892 5892 5892 5892 5891 5891 5891 5890 5890 5889 5889 5888 5887 5886 5885 5884 5884 5884 5883 5882
5900 5899 5898 5897 5896 5895 5895 5894 5894 5894 5894 5893 5893 5893 5893 5893 5893 5893 5893 5893 5893 5893 5893 5893 5892 5892 5892 5891 5891 5891 5890 5889 5888 5888 5887 5886 5885 5884 5883 5883 5882 5882 5881
5902 5901 5899 5898 5897 5897 5896 5896 5895 5895 5895 5894 5894 5894 5894 5894 5894 5894 5893 5893 5893 5893 5893 5893 5892 5892 5891 5891 5890 5889 5889 5888 5888 5887 5886 5885 5884 5883 5882 5881 5880 5879 5878
5903 5902 5901 5900 5899 5898 5897 5897 5896 5896 5896 5895 5895 5895 5894 5894 5894 5894 5894 5894 5893 5893 5893 5892 5892 5891 5890 5890 5889 5889 5888 5887 5887 5886 5885 5884 5883 5882 5880 5879 5878 5877 5876
5904 5903 5902 5901 5900 5899 5898 5898 5897 5897 5896 5896 5895 5895 5895 5894 5894 5894 5894 5894 5893 5893 5893 5892 5892 5891 5890 5889 5889 5888 5887 5886 5885 5884 5883 5882 5881 5880 5878 5877 5876 5874 5873